Tracking 30746 objects as of 19-Jun-2025
HD Live streaming from Space Station
objects crossing your sky now

COSMOS 249 DEB

Track COSMOS 249 DEB now!
10-day predictions


NORAD ID: 18602
Int'l Code: 1968-091DG
Perigee: 739.3 km
Apogee: 1,736.7 km
Inclination: 62.2 °
Period: 110.1 minutes
Semi major axis: 7608 km
RCS: 0.0163 m2 (small)
Launch date: October 20, 1968
Source: Commonwealth of Independent States (former USSR) (CIS)
Launch site: TYURATAM MISSILE AND SPACE COMPLEX (TTMTR)

Note: This is SATELLITE DEBRIS
Your satellite tracking list
Your tracking list is empty




NASA's NSSDC Master Catalog

Two Line Element Set (TLE):
1 18602U 68091DG  25169.21555868  .00002080  00000-0  22221-2 0  9995
2 18602  62.2311  24.8258 0655398 169.2851 309.2990 13.08014779598342
Source of the keplerian elements: AFSPC